Flag for Germany Weather past 2 weeks in Melsungen, Hesse, Germany

Now
60 °F

Passing clouds.


Feels Like: 60 °F
Forecast: 52 / 65 °F
Wind: N/A

Location: Fritzlar

Current Time: Sep 20, 2014 at 2:08:39 AM

Latest Report: Sep 20, 2014 at 1:00 AM


Visibility: 8 mi

Pressure: 29.94 "Hg

Humidity: 97%

Dew point: 59 °F

Location of MelsungenLocation

Historic Weather in Melsungen — Graph

°F

Melsungen temperature yesterday

Maximum temperature yesterday: 72 °F (at 4:00 PM)
Minimum temperature yesterday: 57 °F (at 7:00 AM)
Average temperature yesterday: 63 °F

Past Weeks' High & Low Weather Summary

 TemperatureHumidityPressure
High78 °F (Sep 6, 5:00 PM)99% (Sep 6, 8:00 AM)30.22 "Hg (Sep 6, 8:00 AM)
Low47 °F (Sep 9, 8:00 AM)51% (Sep 6, 5:00 PM)29.84 "Hg (Sep 6, 5:00 PM)
Average61 °F84%30.03 "Hg
* Reported Sep 5 1:00 AM — Sep 20 1:00 AM, Melsungen, Weather by CustomWeather, © 2014

Note: Actual official high and low records may vary slightly from our data, if they occured in-between our weather recording intervals... More about our weather records

Advertising

Melsungen weather history for previous 24 hours

 ConditionsComfort  
Time TempWeatherWind HumidityBarometerVisibility
1:00 AM
Sep 20
60 °FPassing clouds.N/A97%29.94 "Hg7 mi
12:00 AM59 °FPassing clouds.1 mph97%29.94 "Hg7 mi
10:00 PM
Sep 19
61 °FPassing clouds.N/A97%29.93 "Hg12 mi
9:00 PM62 °FPassing clouds.N/A97%29.92 "Hg12 mi
8:00 PM66 °FPassing clouds.1 mph89%29.91 "Hg12 mi
7:00 PM69 °FOvercast.3 mph79%29.89 "Hg16 mi
6:00 PM71 °FOvercast.3 mph72%29.89 "Hg16 mi
5:00 PM71 °FOvercast.2 mph70%29.89 "Hg16 mi
4:00 PM72 °FOvercast.3 mph71%29.89 "Hg12 mi
3:00 PM70 °FOvercast.3 mph77%29.90 "Hg12 mi
2:00 PM69 °FOvercast.N/A79%29.90 "Hg9 mi
1:00 PM68 °FLow clouds.2 mph81%29.90 "Hg7 mi
12:00 PM65 °FSprinkles. Low clouds.1 mph88%29.90 "Hg5 mi
11:00 AM64 °FLow clouds.2 mph87%29.91 "Hg5 mi
10:00 AM61 °FFog.1 mph96%29.92 "Hg2 mi
9:00 AM59 °FFog.N/A98%29.91 "Hg2 mi
8:00 AM57 °FFog.2 mph98%29.91 "Hg2 mi
7:00 AM57 °FFog.1 mph98%29.89 "Hg1 mi
6:00 AM58 °FFog.2 mph97%29.90 "Hg4 mi
5:00 AM60 °FLow clouds.1 mph97%29.89 "Hg4 mi
4:00 AM59 °FLight rain. Overcast.1 mph97%29.90 "Hg5 mi
3:00 AM60 °FLight rain. Overcast.1 mph97%29.91 "Hg9 mi
2:00 AM60 °FOvercast.2 mph96%29.92 "Hg11 mi
Weather by CustomWeather, © 2014

See weather overviewHow to use our weather pages